Tracking 25378 objects as of 22-Jan-2022
HD Live streaming from Space Station
objects crossing your sky now

STARLINK-1617

Track STARLINK-1617 now!
10-day predictions
STARLINK-1617 is classified as:


NORAD ID: 46350
Int'l Code: 2020-062AB
Perigee: 553.0 km
Apogee: 555.8 km
Inclination: 53.1 °
Period: 95.6 minutes
Semi major axis: 6925 km
RCS: Unknown
Launch date: September 3, 2020
Source: United States (US)
Launch site: AIR FORCE EASTERN TEST RANGE (AFETR)
aabbcc
Your satellite tracking list
Your tracking list is empty




NASA's NSSDC Master Catalog

Two Line Element Set (TLE):
1 46350U 20062AB  22021.49323693 -.00002285  00000-0 -13457-3 0  9996
2 46350  53.0565 307.1751 0002041  66.2601 293.8602 15.06391289 76991
Source of the keplerian elements: AFSPC